Simultaneous Nadir Overpasses (SNOs) Predictions

Prediction of SNOs between METOP-B and NOAA-19 Satellite Orbit:

Table of predicted SNOs for the next 14.0 days since TLE Epoch: 11/2/2024
Index Date (METOP-B) Time (METOP-B) Lat,Lon (METOP-B) SZA (METOP-B ) Date (NOAA-19) Time (NOAA-19) Lat,Lon (NOAA-19) SZA (NOAA-19 ) Distance(km) Time Diff (sec)
1 11/09/2024 13:49:43 -79.06,-119.47 72.85 11/09/2024 13:48:32 -79.06,-119.47 72.90 0.12 71
2 11/09/2024 14:40:22 78.99, 48.33 107.25 11/09/2024 14:39:31 79.00, 48.28 107.20 1.22 51
3 11/09/2024 15:31:00 -78.91,-143.78 72.64 11/09/2024 15:30:25 -78.92,-143.88 72.68 2.44 35
4 11/09/2024 16:21:38 78.80, 24.25 107.51 11/09/2024 16:21:22 78.78, 24.35 107.52 2.74 16
5 11/09/2024 17:12:16 -78.71,-167.89 72.38 11/09/2024 17:12:16 -78.70,-167.82 72.37 1.58 0
6 11/09/2024 18:02:54 78.60, 0.13 107.77 11/09/2024 18:03:14 78.60, 0.14 107.79 0.23 20
7 11/09/2024 18:53:33 -78.55, 167.74 72.17 11/09/2024 18:54:09 -78.55, 167.70 72.15 1.02 36
8 11/09/2024 19:44:11 78.43, -24.26 107.98 11/09/2024 19:45:07 78.45, -24.35 108.01 2.51 56



Historial Predications of SNOs between METOP-B and NOAA-19
